Tracking 27112 objects as of 26-Mar-2023
HD Live streaming from Space Station
objects crossing your sky now

STARLINK-3559

Track STARLINK-3559 now!
10-day predictions
STARLINK-3559 is classified as:


NORAD ID: 51860
Int'l Code: 2022-022J
Perigee: 545.5 km
Apogee: 548.3 km
Inclination: 53.2 °
Period: 95.4 minutes
Semi major axis: 6917 km
RCS: Unknown
Launch date: March 3, 2022
Source: United States (US)
Launch site: AIR FORCE EASTERN TEST RANGE (AFETR)
Your satellite tracking list
Your tracking list is empty




NASA's NSSDC Master Catalog

Two Line Element Set (TLE):
1 51860U 22022J   23085.21404980  .00021521  00000-0  13664-2 0  9997
2 51860  53.2173 175.0765 0001962 123.4752 236.6428 15.08832560 60157
Source of the keplerian elements: AFSPC